EN

Hourly Weather Aarberg

Today, 14 May, Friday

Time Temperature Precipitation Wind Pressure Humidity
00:00 +5°C° 0 mm 1 mps 712 mmHg 89%
01:00 +5°C° 0 mm 1 mps 711 mmHg 89%
02:00 +5°C° 0 mm 1 mps 711 mmHg 89%
03:00 +5°C° 0 mm 1 mps 711 mmHg 89%
04:00 +6°C° 0 mm 1 mps 711 mmHg 85%
05:00 +6°C° 0 mm 0 mps 712 mmHg 81%
06:00 +8°C° 0 mm 0 mps 712 mmHg 76%
07:00 +9°C° 0 mm 0 mps 712 mmHg 71%
08:00 +12°C° 0 mm 1 mps 712 mmHg 65%
09:00 +14°C° 0 mm 1 mps 712 mmHg 60%
10:00 +13°C° 0.4 mm 2 mps 712 mmHg 66%
11:00 +12°C° 0.4 mm 3 mps 712 mmHg 71%
12:00 +12°C° 0.4 mm 3 mps 712 mmHg 77%
13:00 +12°C° 0.3 mm 3 mps 712 mmHg 75%
14:00 +12°C° 0.3 mm 3 mps 712 mmHg 73%
15:00 +12°C° 0.3 mm 3 mps 712 mmHg 71%
16:00 +11°C° 0.3 mm 3 mps 713 mmHg 76%
17:00 +10°C° 0.3 mm 2 mps 713 mmHg 81%
18:00 +9°C° 0.3 mm 2 mps 713 mmHg 86%
19:00 +8°C° 0 mm 2 mps 713 mmHg 89%
20:00 +7°C° 0 mm 2 mps 714 mmHg 91%
21:00 +6°C° 0 mm 2 mps 714 mmHg 94%
22:00 +5°C° 0 mm 2 mps 714 mmHg 94%
23:00 +5°C° 0 mm 2 mps 714 mmHg 94%

Tomorrow, 15 May, Saturday

Time Temperature Precipitation Wind Pressure Humidity
00:00 +5°C° 0 mm 2 mps 714 mmHg 94%
01:00 +4°C° 0 mm 2 mps 713 mmHg 94%
02:00 +4°C° 0 mm 2 mps 713 mmHg 94%
03:00 +4°C° 0 mm 2 mps 713 mmHg 94%
04:00 +6°C° 0 mm 1 mps 713 mmHg 93%
05:00 +7°C° 0 mm 1 mps 713 mmHg 92%
06:00 +8°C° 0 mm 1 mps 712 mmHg 91%
07:00 +9°C° 0 mm 1 mps 712 mmHg 85%
08:00 +9°C° 0 mm 2 mps 712 mmHg 80%
09:00 +10°C° 0 mm 2 mps 711 mmHg 75%
10:00 +9°C° 0.6 mm 3 mps 711 mmHg 81%
11:00 +8°C° 0.6 mm 4 mps 711 mmHg 87%
12:00 +7°C° 0.6 mm 4 mps 711 mmHg 93%
13:00 +7°C° 1.5 mm 4 mps 711 mmHg 94%
14:00 +8°C° 1.5 mm 3 mps 711 mmHg 95%
15:00 +8°C° 1.5 mm 3 mps 711 mmHg 96%
16:00 +8°C° 1 mm 3 mps 711 mmHg 97%
17:00 +8°C° 1 mm 3 mps 711 mmHg 97%
18:00 +8°C° 1 mm 3 mps 711 mmHg 97%
19:00 +8°C° 0.6 mm 3 mps 712 mmHg 97%
20:00 +7°C° 0.6 mm 4 mps 712 mmHg 96%
21:00 +7°C° 0.6 mm 4 mps 712 mmHg 95%
22:00 +7°C° 0 mm 3 mps 712 mmHg 95%
23:00 +7°C° 0 mm 3 mps 712 mmHg 96%

Day after tomorrow, 16 May, Sunday

Time Temperature Precipitation Wind Pressure Humidity
00:00 +6°C° 0 mm 2 mps 712 mmHg 96%
01:00 +7°C° 0 mm 2 mps 712 mmHg 96%
02:00 +7°C° 0 mm 2 mps 712 mmHg 95%
03:00 +7°C° 0 mm 2 mps 712 mmHg 95%
04:00 +7°C° 0.5 mm 2 mps 712 mmHg 95%
05:00 +8°C° 0.5 mm 2 mps 711 mmHg 96%
06:00 +9°C° 0.5 mm 1 mps 711 mmHg 97%
07:00 +9°C° 0.6 mm 2 mps 711 mmHg 96%
08:00 +9°C° 0.6 mm 2 mps 711 mmHg 96%
09:00 +10°C° 0.6 mm 3 mps 711 mmHg 95%
10:00 +10°C° 0.8 mm 3 mps 711 mmHg 94%
11:00 +11°C° 0.8 mm 4 mps 711 mmHg 93%
12:00 +10°C° 0.8 mm 5 mps 711 mmHg 92%
13:00 +12°C° 0.9 mm 5 mps 711 mmHg 90%
14:00 +11°C° 0.9 mm 6 mps 711 mmHg 89%
15:00 +11°C° 0.9 mm 6 mps 710 mmHg 87%
16:00 +11°C° 0.5 mm 6 mps 711 mmHg 87%
17:00 +10°C° 0.5 mm 6 mps 711 mmHg 87%
18:00 +10°C° 0.5 mm 5 mps 711 mmHg 87%
19:00 +9°C° 0.5 mm 5 mps 711 mmHg 89%
20:00 +8°C° 0.5 mm 4 mps 712 mmHg 91%
21:00 +7°C° 0.5 mm 4 mps 712 mmHg 94%
22:00 +7°C° 0.2 mm 4 mps 712 mmHg 94%
23:00 +6°C° 0.2 mm 4 mps 712 mmHg 94%

17 May, Monday

Time Temperature Precipitation Wind Pressure Humidity
00:00 +6°C° 0.2 mm 4 mps 713 mmHg 93%
01:00 +6°C° 0 mm 4 mps 713 mmHg 93%
02:00 +6°C° 0 mm 4 mps 713 mmHg 92%
03:00 +6°C° 0 mm 4 mps 713 mmHg 92%
04:00 +6°C° 0 mm 4 mps 713 mmHg 89%
05:00 +7°C° 0 mm 4 mps 713 mmHg 87%
06:00 +7°C° 0 mm 4 mps 713 mmHg 85%
07:00 +8°C° 0 mm 5 mps 713 mmHg 74%
08:00 +10°C° 0 mm 6 mps 713 mmHg 64%
09:00 +11°C° 0 mm 6 mps 713 mmHg 53%
10:00 +13°C° 0.2 mm 6 mps 713 mmHg 55%
11:00 +13°C° 0.2 mm 6 mps 714 mmHg 57%
12:00 +12°C° 0.2 mm 7 mps 714 mmHg 59%
13:00 +13°C° 0.2 mm 6 mps 714 mmHg 60%
14:00 +13°C° 0.2 mm 6 mps 714 mmHg 60%
15:00 +13°C° 0.2 mm 6 mps 714 mmHg 61%
16:00 +12°C° 0.3 mm 5 mps 714 mmHg 69%
17:00 +10°C° 0.3 mm 5 mps 714 mmHg 78%
18:00 +8°C° 0.3 mm 5 mps 714 mmHg 86%
19:00 +8°C° 0.4 mm 5 mps 715 mmHg 88%
20:00 +7°C° 0.4 mm 4 mps 715 mmHg 90%
21:00 +7°C° 0.4 mm 4 mps 716 mmHg 92%
22:00 +7°C° 0.5 mm 4 mps 716 mmHg 93%
23:00 +7°C° 0.5 mm 4 mps 716 mmHg 94%

18 May, Tuesday

Time Temperature Precipitation Wind Pressure Humidity
00:00 +7°C° 0.5 mm 5 mps 716 mmHg 95%
01:00 +6°C° 1.5 mm 4 mps 716 mmHg 96%
02:00 +6°C° 1.5 mm 4 mps 716 mmHg 96%
03:00 +6°C° 1.5 mm 4 mps 717 mmHg 96%
04:00 +5°C° 1.7 mm 4 mps 717 mmHg 96%
05:00 +5°C° 1.7 mm 4 mps 718 mmHg 97%
06:00 +5°C° 1.7 mm 4 mps 719 mmHg 97%
07:00 +5°C° 0.7 mm 4 mps 719 mmHg 97%
08:00 +5°C° 0.7 mm 4 mps 719 mmHg 96%
09:00 +5°C° 0.7 mm 3 mps 720 mmHg 96%
10:00 +6°C° 0.4 mm 4 mps 720 mmHg 94%
11:00 +7°C° 0.4 mm 4 mps 720 mmHg 93%
12:00 +7°C° 0.4 mm 4 mps 721 mmHg 91%
13:00 +8°C° 0.2 mm 4 mps 721 mmHg 86%
14:00 +8°C° 0.2 mm 4 mps 720 mmHg 82%
15:00 +10°C° 0.2 mm 3 mps 720 mmHg 78%
16:00 +10°C° 0.1 mm 3 mps 720 mmHg 80%
17:00 +9°C° 0.1 mm 3 mps 721 mmHg 82%
18:00 +9°C° 0.1 mm 2 mps 721 mmHg 84%
19:00 +8°C° 0 mm 2 mps 721 mmHg 87%
20:00 +7°C° 0 mm 2 mps 721 mmHg 90%
21:00 +5°C° 0 mm 2 mps 721 mmHg 93%
22:00 +5°C° 0 mm 2 mps 721 mmHg 92%
23:00 +5°C° 0 mm 2 mps 721 mmHg 92%

19 May, Wednesday

Time Temperature Precipitation Wind Pressure Humidity
00:00 +4°C° 0 mm 2 mps 721 mmHg 91%
01:00 +4°C° 0 mm 2 mps 721 mmHg 91%
02:00 +4°C° 0 mm 2 mps 721 mmHg 91%
03:00 +4°C° 0 mm 2 mps 721 mmHg 90%
04:00 +5°C° 0.1 mm 2 mps 721 mmHg 88%
05:00 +6°C° 0.1 mm 2 mps 721 mmHg 86%
06:00 +8°C° 0.1 mm 2 mps 721 mmHg 84%
07:00 +9°C° 0.2 mm 3 mps 721 mmHg 82%
08:00 +10°C° 0.2 mm 3 mps 721 mmHg 79%
09:00 +11°C° 0.2 mm 4 mps 721 mmHg 76%
10:00 +11°C° 0.2 mm 4 mps 721 mmHg 73%
11:00 +12°C° 0.2 mm 4 mps 721 mmHg 69%
12:00 +12°C° 0.2 mm 4 mps 721 mmHg 66%
13:00 +13°C° 0.3 mm 4 mps 721 mmHg 64%
14:00 +13°C° 0.3 mm 4 mps 721 mmHg 63%
15:00 +14°C° 0.3 mm 4 mps 721 mmHg 61%
16:00 +13°C° 0.2 mm 3 mps 721 mmHg 69%
17:00 +13°C° 0.2 mm 2 mps 721 mmHg 76%
18:00 +12°C° 0.2 mm 1 mps 721 mmHg 84%
19:00 +10°C° 0 mm 1 mps 721 mmHg 86%
20:00 +9°C° 0 mm 1 mps 721 mmHg 88%
21:00 +8°C° 0 mm 1 mps 721 mmHg 90%
22:00 +8°C° 0 mm 1 mps 721 mmHg 90%
23:00 +8°C° 0 mm 1 mps 720 mmHg 89%
Show more